| time (UTC) | temp F | wind direction | speed knots | gust knots | rain 1hr in | rain 24hr in | rain mn in | humidity % | barometer mb |
| 20260505171522 | 57 | 229 | 2.6 | 7.0 | 0.00 | 0.00 | 0.00 | 82 | 1016.7 |
| 20260505170032 | 57 | 200 | 3.5 | 7.8 | 0.00 | 0.00 | 0.00 | 81 | 1016.7 |
| 20260505164512 | 57 | 209 | 3.5 | 6.1 | 0.00 | 0.00 | 0.00 | 78 | 1016.5 |
| 20260505163018 | 57 | 233 | 4.3 | 7.0 | 0.00 | 0.00 | 0.00 | 77 | 1016.5 |
| 20260505161526 | 57 | 250 | 0.0 | 2.6 | 0.00 | 0.00 | 0.00 | 76 | 1016.5 |
| 20260505153003 | 56 | 311 | 0.0 | 2.6 | 0.00 | 0.00 | 0.00 | 78 | 1016.4 |
| 20260505151503 | 56 | 285 | 0.0 | 2.6 | 0.00 | 0.00 | 0.00 | 79 | 1016.1 |
| 20260505124506 | 54 | 344 | 0.0 | 1.7 | 0.00 | 0.00 | 0.00 | 79 | 1015.3 |
| 20260505123006 | 54 | 294 | 0.0 | 0.0 | 0.00 | 0.00 | 0.00 | 78 | 1015.4 |
| 20260505121504 | 54 | 280 | 0.0 | 2.6 | 0.00 | 0.00 | 0.00 | 78 | 1015.5 |
| 20260505120008 | 54 | 327 | 0.9 | 2.6 | 0.00 | 0.00 | 0.00 | 78 | 1015.4 |
| 20260505114508 | 54 | 352 | 0.0 | 1.7 | 0.00 | 0.00 | 0.00 | 78 | 1015.2 |
| 20260505113006 | 54 | 309 | 0.0 | 2.6 | 0.00 | 0.00 | 0.00 | 79 | 1015.3 |
| 20260505111507 | 54 | 277 | 0.0 | 3.5 | 0.00 | 0.00 | 0.00 | 79 | 1015.3 |
| 20260505101513 | 55 | 300 | 0.0 | 4.3 | 0.00 | 0.00 | 0.00 | 80 | 1015.1 |
| 20260505100012 | 55 | 26 | 0.0 | 2.6 | 0.00 | 0.00 | 0.00 | 80 | 1015.4 |
| 20260505094519 | 55 | 347 | 0.0 | 2.6 | 0.00 | 0.00 | 0.00 | 81 | 1015.4 |
| 20260505093012 | 55 | 300 | 0.0 | 2.6 | 0.00 | 0.00 | 0.00 | 81 | 1015.4 |
| 20260505091513 | 55 | 305 | 0.0 | 1.7 | 0.00 | 0.00 | 0.00 | 81 | 1015.6 |
| 20260505090011 | 55 | 338 | 0.0 | 2.6 | 0.00 | 0.00 | 0.00 | 81 | 1015.8 |
| 20260505084512 | 55 | 49 | 0.0 | 5.2 | 0.00 | 0.00 | 0.00 | 81 | 1015.7 |
| 20260505083016 | 55 | 302 | 0.0 | 2.6 | 0.00 | 0.00 | 0.00 | 81 | 1015.8 |
| 20260505081512 | 55 | 294 | 0.0 | 0.0 | 0.00 | 0.00 | 0.00 | 81 | 1015.9 |
| 20260505080014 | 55 | 302 | 0.0 | 0.0 | 0.00 | 0.00 | 0.00 | 81 | 1016.0 |
| 20260505074510 | 55 | 302 | 0.0 | 0.0 | 0.00 | 0.00 | 0.00 | 81 | 1016.0 |
| 20260505073027 | 55 | 302 | 0.0 | 0.0 | 0.00 | 0.00 | 0.00 | 82 | 1015.9 |
| 20260505071515 | 55 | 294 | 0.0 | 1.7 | 0.00 | 0.00 | 0.00 | 82 | 1015.8 |
| 20260505070027 | 55 | 20 | 0.0 | 1.7 | 0.00 | 0.00 | 0.00 | 83 | 1015.9 |
| 20260505064508 | 55 | 116 | 0.0 | 0.0 | 0.00 | 0.00 | 0.00 | 83 | 1015.6 |
| 20260505063014 | 56 | 119 | 0.0 | 0.0 | 0.00 | 0.00 | 0.00 | 83 | 1015.5 |
| 20260505061523 | 56 | 89 | 0.0 | 0.0 | 0.00 | 0.00 | 0.00 | 83 | 1015.5 |
| 20260505060020 | 56 | 39 | 0.0 | 0.0 | 0.00 | 0.00 | 0.00 | 83 | 1015.6 |
| 20260505054520 | 56 | 61 | 0.0 | 1.7 | 0.00 | 0.00 | 0.00 | 82 | 1015.8 |
| 20260505053020 | 56 | 340 | 0.0 | 1.7 | 0.00 | 0.00 | 0.00 | 81 | 1015.9 |
| 20260505051520 | 56 | 19 | 0.0 | 2.6 | 0.00 | 0.00 | 0.00 | 81 | 1016.0 |
| 20260505041532 | 56 | 244 | 0.9 | 3.5 | 0.00 | 0.00 | 0.00 | 80 | 1015.6 |
| 20260505040025 | 57 | 196 | 0.0 | 3.5 | 0.00 | 0.00 | 0.00 | 80 | 1015.3 |
| 20260505034525 | 57 | 225 | 2.6 | 7.0 | 0.00 | 0.00 | 0.00 | 79 | 1015.2 |
| 20260505033023 | 57 | 259 | 0.9 | 6.1 | 0.00 | 0.00 | 0.00 | 79 | 1015.0 |
| 20260505031535 | 57 | 201 | 0.9 | 3.5 | 0.00 | 0.00 | 0.00 | 79 | 1015.1 |
| 20260505030024 | 57 | 230 | 2.6 | 7.8 | 0.00 | 0.00 | 0.00 | 79 | 1015.1 |
| 20260505024520 | 58 | 228 | 3.5 | 7.0 | 0.00 | 0.00 | 0.00 | 78 | 1015.1 |
| 20260505023023 | 59 | 211 | 2.6 | 7.8 | 0.00 | 0.00 | 0.00 | 77 | 1014.8 |
| 20260505021522 | 59 | 221 | 1.7 | 6.1 | 0.00 | 0.00 | 0.00 | 75 | 1014.6 |
| 20260505020022 | 60 | 224 | 3.5 | 12.2 | 0.00 | 0.00 | 0.00 | 73 | 1014.7 |
| 20260505014532 | 61 | 248 | 3.5 | 7.8 | 0.00 | 0.00 | 0.00 | 71 | 1014.7 |
| 20260505013022 | 61 | 205 | 3.5 | 7.0 | 0.00 | 0.00 | 0.00 | 69 | 1014.9 |
| 20260505011524 | 61 | 201 | 4.3 | 8.7 | 0.00 | 0.00 | 0.00 | 67 | 1015.0 |
| 20260505010007 | 62 | 188 | 3.5 | 11.3 | 0.00 | 0.00 | 0.00 | 68 | 1015.3 |
| 20260505004527 | 61 | 211 | 4.3 | 13.9 | 0.00 | 0.00 | 0.00 | 72 | 1015.5 |
| 20260505003018 | 62 | 205 | 3.5 | 11.3 | 0.00 | 0.00 | 0.00 | 70 | 1015.5 |
| 20260505001522 | 62 | 219 | 5.2 | 12.2 | 0.00 | 0.00 | 0.00 | 71 | 1015.5 |
| 20260505000030 | 62 | 213 | 4.3 | 10.4 | 0.00 | 0.00 | 0.00 | 75 | 1015.3 |
| 20260504234510 | 61 | 200 | 7.8 | 15.6 | 0.00 | 0.00 | 0.00 | 75 | 1015.4 |
| 20260504233026 | 61 | 234 | 7.0 | 13.9 | 0.00 | 0.00 | 0.00 | 75 | 1015.5 |
| 20260504231528 | 62 | 225 | 8.7 | 13.0 | 0.00 | 0.00 | 0.00 | 72 | 1015.6 |
| 20260504230024 | 62 | 212 | 7.0 | 13.9 | 0.00 | 0.00 | 0.00 | 74 | 1015.7 |
| 20260504224512 | 62 | 224 | 7.8 | 13.0 | 0.00 | 0.00 | 0.00 | 74 | 1015.6 |
| 20260504223025 | 61 | 254 | 6.1 | 12.2 | 0.00 | 0.00 | 0.00 | 77 | 1015.8 |
| 20260504221517 | 60 | 246 | 7.8 | 17.4 | 0.00 | 0.00 | 0.00 | 80 | 1015.9 |
| 20260504220027 | 61 | 221 | 9.6 | 17.4 | 0.00 | 0.00 | 0.00 | 76 | 1016.1 |
| 20260504214527 | 61 | 234 | 7.8 | 15.6 | 0.00 | 0.00 | 0.00 | 76 | 1016.1 |
| 20260504213021 | 61 | 234 | 8.7 | 14.8 | 0.00 | 0.00 | 0.00 | 76 | 1016.3 |
| 20260504211533 | 61 | 254 | 8.7 | 14.8 | 0.00 | 0.00 | 0.00 | 78 | 1016.5 |
| 20260504210027 | 60 | 218 | 7.8 | 13.0 | 0.00 | 0.00 | 0.00 | 78 | 1016.5 |
| 20260504204535 | 61 | 246 | 7.0 | 13.9 | 0.00 | 0.00 | 0.00 | 78 | 1016.5 |
| 20260504203028 | 61 | 270 | 7.0 | 14.8 | 0.00 | 0.00 | 0.00 | 76 | 1016.6 |
| 20260504201513 | 62 | 252 | 4.3 | 11.3 | 0.00 | 0.00 | 0.00 | 78 | 1016.6 |
| 20260504200018 | 62 | 242 | 5.2 | 9.6 | 0.00 | 0.00 | 0.00 | 78 | 1016.7 |
| 20260504194529 | 61 | 220 | 4.3 | 9.6 | 0.00 | 0.00 | 0.00 | 80 | 1016.6 |
| 20260504193026 | 59 | 212 | 7.0 | 11.3 | 0.00 | 0.00 | 0.00 | 78 | 1016.7 |
| 20260504191528 | 60 | 248 | 4.3 | 12.2 | 0.00 | 0.00 | 0.00 | 79 | 1016.8 |
| 20260504190016 | 59 | 206 | 7.8 | 11.3 | 0.00 | 0.00 | 0.00 | 79 | 1016.7 |
| 20260504184520 | 60 | 183 | 4.3 | 9.6 | 0.00 | 0.00 | 0.00 | 80 | 1016.8 |
| 20260504183007 | 60 | 207 | 5.2 | 8.7 | 0.00 | 0.00 | 0.00 | 78 | 1016.8 |
| 20260504181528 | 60 | 205 | 4.3 | 7.8 | 0.00 | 0.00 | 0.00 | 79 | 1016.7 |
| 20260504180027 | 60 | 217 | 3.5 | 7.8 | 0.00 | 0.00 | 0.00 | 79 | 1016.6 |
| 20260504174518 | 58 | 237 | 4.3 | 8.7 | 0.00 | 0.00 | 0.00 | 81 | 1016.4 |
| 20260504173020 | 58 | 215 | 4.3 | 7.8 | 0.00 | 0.00 | 0.00 | 80 | 1016.1 |